DW6064 Weather Reports


time (UTC)temp
C
wind
direction
speed
KPH
gust
KPH
rain 1hr
cm
rain 24hr
cm
rain mn
cm
humidity
%
barometer
mb
20260902093038 22 165 3.2 8.0 0.00 0.03 0.00 85 1017.4
20260902092533 22 165 6.4 8.0 0.00 0.03 0.00 86 1017.4
20260902092034 22 165 4.8 9.7 0.00 0.03 0.00 86 1017.6
20260902091530 22 164 4.8 9.7 0.00 0.03 0.00 86 1017.6
20260902091055 22 150 4.8 12.9 0.00 0.03 0.00 86 1017.5
20260902090531 22 151 8.0 16.1 0.00 0.03 0.00 86 1017.5
20260902090034 22 147 11.3 16.1 0.00 0.03 0.00 86 1017.4
20260902085533 22 139 8.0 14.5 0.00 0.03 0.00 86 1017.5
20260902085052 22 123 8.0 14.5 0.00 0.03 0.00 86 1017.4
20260902084529 22 144 8.0 12.9 0.00 0.03 0.00 86 1017.3
20260902084048 22 143 6.4 11.3 0.00 0.03 0.00 86 1017.3
20260902083525 22 140 4.8 11.3 0.00 0.03 0.00 86 1017.4
20260902083050 22 153 4.8 9.7 0.00 0.03 0.00 86 1017.3
20260902082526 22 146 1.6 8.0 0.00 0.03 0.00 86 1017.4
20260902082026 22 146 6.4 8.0 0.00 0.03 0.00 85 1017.3
20260902081542 22 149 6.4 11.3 0.00 0.03 0.00 85 1017.3
20260902081040 22 146 6.4 11.3 0.00 0.03 0.00 85 1017.2
20260902080537 22 128 3.2 9.7 0.00 0.03 0.00 86 1017.2
20260902080037 22 144 1.6 6.4 0.00 0.03 0.00 85 1017.3
20260902075535 22 130 4.8 6.4 0.00 0.03 0.00 85 1017.3
20260902075035 23 130 1.6 4.8 0.00 0.03 0.00 85 1017.2
20260902074532 23 275 1.6 4.8 0.00 0.03 0.00 85 1017.2
20260902074057 23 275 0.0 0.0 0.00 0.03 0.00 85 1017.1
20260902073557 23 275 0.0 0.0 0.00 0.03 0.00 85 1017.1
20260902073101 23 275 0.0 0.0 0.00 0.03 0.00 86 1017.0
20260902072537 23 275 0.0 0.0 0.00 0.03 0.00 86 1017.1
20260902072041 23 275 0.0 0.0 0.00 0.03 0.00 85 1017.0
20260902071538 23 275 0.0 3.2 0.00 0.03 0.00 85 1017.0
20260902071103 23 275 0.0 3.2 0.00 0.03 0.00 85 1017.0
20260902070604 23 275 1.6 3.2 0.00 0.03 0.00 85 1017.0
20260902070042 23 275 0.0 0.0 0.00 0.03 0.00 84 1017.1
20260902065537 23 275 0.0 0.0 0.00 0.03 0.00 85 1017.1
20260902065037 23 275 0.0 0.0 0.00 0.03 0.00 84 1017.1
20260902064559 23 275 0.0 0.0 0.00 0.03 0.00 84 1017.0
20260902064037 23 275 0.0 0.0 0.00 0.03 0.00 83 1017.0
20260902063559 23 275 0.0 0.0 0.00 0.03 0.00 84 1016.9
20260902063037 23 275 0.0 0.0 0.00 0.03 0.00 83 1017.0
20260902062534 23 275 0.0 0.0 0.00 0.03 0.00 83 1017.1
20260902062033 23 275 0.0 0.0 0.00 0.03 0.00 83 1017.2
20260902061035 23 275 0.0 0.0 0.00 0.03 0.00 82 1017.2
20260902060532 23 275 0.0 0.0 0.00 0.03 0.00 82 1017.3
20260902060031 23 275 0.0 0.0 0.00 0.03 0.00 82 1017.3
20260902055548 23 275 0.0 0.0 0.00 0.03 0.00 81 1017.3
20260902055025 23 275 0.0 0.0 0.00 0.03 0.00 81 1017.4
20260902054525 24 275 0.0 1.6 0.00 0.03 0.00 81 1017.5
20260902054025 24 275 0.0 1.6 0.00 0.03 0.00 80 1017.6
20260902053542 24 275 0.0 1.6 0.00 0.03 0.00 80 1017.6
20260902053042 24 275 0.0 0.0 0.00 0.03 0.00 80 1017.7
20260902052539 24 275 0.0 3.2 0.00 0.03 0.00 80 1017.7
20260902052039 24 275 0.0 4.8 0.00 0.03 0.00 80 1017.7
20260902051601 24 275 3.2 4.8 0.00 0.03 0.00 79 1017.7
20260902051040 25 275 0.0 4.8 0.00 0.03 0.00 79 1017.7
20260902050536 25 324 1.6 6.4 0.00 0.03 0.00 78 1017.8
20260902050036 25 324 3.2 6.4 0.00 0.03 0.00 78 1017.9
20260902045533 25 326 3.2 6.4 0.00 0.03 0.00 77 1017.9
20260902045033 25 294 3.2 8.0 0.00 0.03 0.00 77 1017.9
20260902044530 25 313 4.8 8.0 0.00 0.03 0.00 77 1017.8
20260902044029 25 321 1.6 8.0 0.00 0.03 0.00 76 1017.8
20260902043545 25 330 4.8 11.3 0.00 0.03 0.00 75 1017.6
20260902043043 25 313 4.8 11.3 0.00 0.03 0.00 75 1017.6
20260902042524 25 5 0.0 4.8 0.00 0.03 0.00 74 1017.4
20260902042044 25 5 0.0 8.0 0.00 0.03 0.00 74 1017.4
20260902041541 26 348 1.6 8.0 0.00 0.03 0.00 74 1017.4
20260902041040 26 344 3.2 11.3 0.00 0.03 0.00 74 1017.4
20260902040537 26 347 4.8 14.5 0.00 0.03 0.00 73 1017.5
20260902040036 26 36 1.6 14.5 0.00 0.03 0.00 73 1017.4
20260902035559 26 9 3.2 19.3 0.00 0.03 0.03 73 1017.5
20260902035037 26 71 6.4 29.0 0.00 0.03 0.03 73 1017.5
20260902034535 26 36 8.0 33.8 0.00 0.03 0.03 72 1017.5
20260902034034 26 49 14.5 35.4 0.00 0.03 0.03 72 1017.5
20260902033531 26 40 14.5 37.0 0.00 0.03 0.03 71 1017.3
20260902033031 27 74 20.9 40.2 0.00 0.03 0.03 71 1017.2
20260902032552 27 344 16.1 40.2 0.00 0.03 0.03 71 1017.1
20260902032055 27 50 6.4 17.7 0.00 0.03 0.03 73 1017.0
20260902031556 27 346 9.7 17.7 0.00 0.03 0.03 73 1016.7
20260902031035 27 182 0.0 6.4 0.00 0.03 0.03 72 1016.5
20260902030532 27 182 1.6 6.4 0.00 0.03 0.03 72 1016.4
20260902030057 27 171 6.4 8.0 0.00 0.03 0.03 71 1016.2
20260902025559 27 226 3.2 4.8 0.00 0.03 0.03 71 1016.1
20260902025037 27 226 0.0 3.2 0.00 0.03 0.03 71 1016.1
20260902024539 27 207 0.0 6.4 0.00 0.03 0.03 71 1016.0
20260902024038 27 189 0.0 6.4 0.00 0.03 0.03 70 1015.9
20260902023601 27 189 4.8 4.8 0.00 0.03 0.03 70 1015.8
20260902023103 28 189 0.0 4.8 0.00 0.03 0.03 70 1015.7
20260902022539 28 211 1.6 8.0 0.00 0.03 0.03 70 1015.6
20260902022103 28 202 3.2 9.7 0.00 0.03 0.03 70 1015.4
20260902021604 28 202 3.2 11.3 0.00 0.03 0.03 69 1015.2
20260902021042 28 187 8.0 11.3 0.00 0.03 0.03 69 1015.0
20260902020538 28 208 3.2 11.3 0.00 0.03 0.03 69 1015.1
20260902020037 28 183 4.8 8.0 0.00 0.03 0.03 69 1015.2
20260902015534 28 178 6.4 11.3 0.00 0.03 0.03 68 1015.2
20260902015033 28 196 6.4 12.9 0.00 0.03 0.03 68 1015.4
20260902014551 28 215 6.4 12.9 0.00 0.03 0.03 68 1015.4
20260902014049 28 205 6.4 12.9 0.00 0.03 0.03 68 1015.3
20260902013525 28 187 8.0 12.9 0.00 0.03 0.03 68 1015.4
20260902013044 28 217 3.2 6.4 0.00 0.03 0.03 68 1015.4
20260902012541 28 211 0.0 3.2 0.00 0.03 0.03 69 1015.5
20260902012041 28 211 0.0 4.8 0.00 0.03 0.03 68 1015.5
20260902011537 29 211 1.6 4.8 0.00 0.03 0.03 68 1015.5
20260902011036 29 183 3.2 4.8 0.00 0.03 0.03 68 1015.5
20260902010537 29 183 1.6 4.8 0.00 0.03 0.03 69 1015.5
20260902010101 29 183 0.0 4.8 0.00 0.03 0.03 68 1015.4
20260902005535 29 183 0.0 1.6 0.00 0.03 0.03 68 1015.4
20260902005033 29 183 0.0 6.4 0.00 0.03 0.03 67 1015.2
20260902004531 29 183 1.6 6.4 0.00 0.03 0.03 67 1014.9
20260902004028 29 232 1.6 8.0 0.00 0.03 0.03 67 1014.6
20260902003531 29 262 3.2 12.9 0.00 0.03 0.03 67 1014.4
20260902003030 29 255 4.8 14.5 0.00 0.03 0.03 67 1014.2
20260902002548 30 260 4.8 14.5 0.00 0.03 0.03 66 1014.2
20260902002026 30 242 4.8 14.5 0.00 0.03 0.03 65 1014.2
20260902001543 30 294 3.2 14.5 0.00 0.03 0.03 65 1014.2
20260902001043 30 235 6.4 14.5 0.00 0.03 0.03 65 1014.1
20260902000537 30 240 4.8 14.5 0.00 0.03 0.03 65 1014.0
20260902000036 30 215 3.2 14.5 0.00 0.03 0.03 64 1014.0
20260901235533 30 259 6.4 14.5 0.00 0.03 0.03 64 1014.0
20260901235033 30 246 4.8 11.3 0.00 0.03 0.03 63 1013.9
20260901234529 31 233 6.4 16.1 0.00 0.03 0.03 63 1013.8
20260901234032 31 256 6.4 22.5 0.00 0.03 0.03 63 1013.8
20260901233553 31 269 6.4 22.5 0.00 0.03 0.03 62 1013.7
20260901233031 31 259 3.2 17.7 0.00 0.03 0.03 63 1013.7
20260901232527 31 225 4.8 11.3 0.00 0.03 0.03 62 1013.8
20260901232026 31 236 1.6 11.3 0.00 0.03 0.03 62 1013.8
20260901231543 32 232 1.6 12.9 0.00 0.03 0.03 61 1013.7
20260901231042 32 252 4.8 12.9 0.00 0.03 0.03 60 1013.7
20260901230605 32 257 6.4 11.3 0.00 0.03 0.03 60 1013.7
20260901230043 32 242 4.8 12.9 0.00 0.03 0.03 59 1013.8
20260901225541 32 242 6.4 12.9 0.00 0.03 0.03 59 1013.8
20260901225040 32 242 1.6 9.7 0.00 0.03 0.03 59 1013.8
20260901224537 32 254 4.8 11.3 0.00 0.03 0.03 58 1013.8
20260901224037 33 240 1.6 9.7 0.00 0.03 0.03 58 1013.8
20260901223534 33 245 1.6 9.7 0.00 0.03 0.03 57 1013.9
20260901223031 33 234 1.6 9.7 0.00 0.03 0.03 57 1013.9
20260901222529 33 238 1.6 11.3 0.00 0.03 0.03 57 1013.8
20260901222029 33 242 3.2 16.1 0.00 0.03 0.03 57 1013.7
20260901221531 33 249 6.4 16.1 0.00 0.03 0.03 57 1013.7
20260901221055 33 229 3.2 12.9 0.00 0.03 0.03 57 1013.8
20260901220531 33 242 3.2 12.9 0.00 0.03 0.03 57 1013.8
20260901220053 33 255 3.2 14.5 0.00 0.03 0.03 57 1013.8
20260901215529 33 250 4.8 14.5 0.00 0.03 0.03 57 1013.8
20260901215028 33 242 6.4 14.5 0.00 0.03 0.03 57 1013.9
20260901214524 33 217 6.4 16.1 0.00 0.03 0.03 57 1013.8
20260901214044 33 254 6.4 16.1 0.00 0.03 0.03 56 1013.8
20260901213540 34 213 6.4 16.1 0.00 0.03 0.03 55 1013.8
20260901213040 34 246 6.4 19.3 0.00 0.03 0.03 54 1013.8
20260901212602 35 274 8.0 19.3 0.00 0.03 0.03 54 1013.8
20260901212105 35 250 4.8 16.1 0.00 0.03 0.03 53 1013.9
20260901211540 35 244 9.7 22.5 0.00 0.03 0.03 52 1014.0
20260901211039 35 317 9.7 22.5 0.00 0.03 0.03 52 1013.9
20260901210535 35 265 9.7 16.1 0.00 0.03 0.03 51 1013.9
20260901210034 35 261 4.8 16.1 0.00 0.03 0.03 52 1013.9
20260901205558 36 246 8.0 16.1 0.00 0.03 0.03 51 1013.8
20260901205036 36 224 8.0 17.7 0.00 0.03 0.03 49 1013.8
20260901204534 36 281 9.7 24.1 0.00 0.03 0.03 49 1013.9
20260901204033 36 284 6.4 24.1 0.00 0.03 0.03 49 1014.0
20260901203534 36 254 11.3 24.1 0.00 0.03 0.03 48 1013.9
20260901203034 36 258 6.4 17.7 0.00 0.03 0.03 50 1013.9
20260901202531 36 294 9.7 17.7 0.00 0.03 0.03 49 1014.0
20260901202031 36 294 8.0 22.5 0.00 0.03 0.03 49 1014.0
20260901201529 36 240 9.7 24.1 0.00 0.03 0.03 48 1014.0
20260901201028 36 277 14.5 24.1 0.00 0.03 0.03 48 1014.1
20260901200547 36 269 11.3 20.9 0.00 0.03 0.03 48 1014.1
20260901200026 36 245 11.3 20.9 0.00 0.03 0.03 49 1014.0
20260901195542 36 249 8.0 27.4 0.00 0.03 0.03 51 1014.0
20260901195043 36 261 11.3 27.4 0.00 0.03 0.03 51 1014.1
20260901194540 36 213 14.5 22.5 0.00 0.03 0.03 50 1014.1
20260901194040 36 241 11.3 29.0 0.00 0.03 0.03 49 1014.2
20260901193536 36 269 17.7 29.0 0.00 0.03 0.03 49 1014.2
20260901193035 36 277 14.5 24.1 0.00 0.03 0.03 51 1014.3
20260901192532 35 227 12.9 24.1 0.00 0.03 0.03 51 1014.3
20260901192035 35 294 9.7 25.7 0.00 0.03 0.03 51 1014.3
20260901191532 35 216 11.3 25.7 0.00 0.03 0.03 53 1014.5
20260901191030 35 261 16.1 25.7 0.00 0.03 0.03 53 1014.5
20260901190528 35 340 9.7 24.1 0.00 0.03 0.03 54 1014.4
20260901190052 35 245 9.7 24.1 0.00 0.03 0.03 55 1014.5
20260901185528 35 225 6.4 20.9 0.00 0.03 0.03 56 1014.7
20260901185053 35 259 8.0 20.9 0.00 0.03 0.03 55 1014.9
20260901184528 35 249 9.7 22.5 0.00 0.03 0.03 57 1014.9
20260901184027 35 234 11.3 22.5 0.00 0.03 0.03 56 1015.0
20260901183524 35 279 8.0 22.5 0.00 0.03 0.03 58 1015.0
20260901183043 34 240 12.9 22.5 0.00 0.03 0.03 58 1015.0
20260901182541 34 212 8.0 19.3 0.00 0.03 0.03 57 1014.9
20260901182040 35 255 8.0 20.9 0.00 0.03 0.03 57 1015.1
20260901181538 34 266 4.8 22.5 0.00 0.03 0.03 58 1015.2
20260901181103 34 247 11.3 22.5 0.00 0.03 0.03 60 1015.3
20260901180540 33 245 12.9 20.9 0.00 0.03 0.03 58 1015.4
20260901180038 33 244 8.0 20.9 0.00 0.03 0.03 58 1015.4
20260901175539 34 212 4.8 20.9 0.00 0.03 0.03 57 1015.5
20260901175103 34 227 8.0 30.6 0.00 0.03 0.03 58 1015.5
20260901174540 34 240 12.9 30.6 0.00 0.03 0.03 59 1015.6
20260901174040 33 279 4.8 27.4 0.00 0.03 0.03 60 1015.6
20260901173601 33 241 8.0 20.9 0.00 0.03 0.03 60 1015.6
20260901173039 33 183 4.8 24.1 0.00 0.03 0.03 61 1015.4
20260901172538 33 204 14.5 24.1 0.00 0.03 0.03 59 1015.4
20260901172035 33 190 4.8 16.1 0.00 0.03 0.03 63 1015.5
20260901171532 33 257 6.4 16.1 0.00 0.03 0.03 61 1015.5
20260901171057 33 237 8.0 16.1 0.00 0.03 0.03 62 1015.5
20260901170533 32 208 3.2 22.5 0.00 0.03 0.03 63 1015.5
20260901170034 32 186 9.7 20.9 0.00 0.03 0.03 61 1015.5
20260901165554 32 198 6.4 20.9 0.00 0.03 0.03 63 1015.4
20260901165033 32 246 6.4 17.7 0.00 0.03 0.03 63 1015.5
20260901164529 32 180 9.7 19.3 0.00 0.03 0.03 63 1015.7
20260901164030 32 230 6.4 19.3 0.00 0.03 0.03 64 1015.9
20260901163552 32 188 9.7 19.3 0.00 0.03 0.03 64 1015.9
20260901163031 32 218 8.0 24.1 0.00 0.03 0.03 64 1015.9
20260901162532 32 209 11.3 24.1 0.00 0.03 0.03 64 1016.0
20260901162054 31 241 9.7 19.3 0.00 0.03 0.03 66 1016.1
20260901161531 31 192 14.5 19.3 0.00 0.03 0.03 66 1016.1
20260901161030 31 207 9.7 16.1 0.00 0.03 0.03 67 1016.1
20260901160528 31 198 11.3 17.7 0.00 0.03 0.03 70 1016.1
20260901160032 30 211 8.0 17.7 0.00 0.03 0.03 73 1016.1
20260901155527 30 187 9.7 16.1 0.00 0.03 0.03 74 1016.2
20260901155048 29 175 11.3 19.3 0.00 0.03 0.03 75 1016.2
20260901154524 28 180 9.7 16.1 0.00 0.03 0.03 76 1016.2
20260901154044 28 190 12.9 16.1 0.00 0.03 0.03 77 1016.3
20260901153541 27 182 8.0 14.5 0.00 0.03 0.03 78 1016.3
20260901153040 27 207 9.7 16.1 0.00 0.03 0.03 79 1016.4
20260901152603 27 174 11.3 16.1 0.03 0.03 0.03 80 1016.5
20260901152041 27 192 12.9 14.5 0.03 0.03 0.03 80 1016.5
20260901151539 27 178 9.7 14.5 0.03 0.03 0.03 81 1016.5
20260901151038 26 190 6.4 12.9 0.03 0.03 0.03 82 1016.6
20260901150536 26 189 8.0 11.3 0.03 0.03 0.03 83 1016.5
20260901150035 26 161 6.4 12.9 0.03 0.03 0.03 85 1016.6
20260901145537 26 170 9.7 14.5 0.03 0.03 0.03 84 1016.6
20260901145101 26 163 8.0 14.5 0.03 0.03 0.03 83 1016.5
20260901144537 26 144 9.7 14.5 0.03 0.03 0.03 82 1016.5
20260901144036 26 153 11.3 14.5 0.03 0.03 0.03 81 1016.6
20260901143534 27 168 11.3 17.7 0.03 0.03 0.03 81 1016.8
20260901143033 27 157 12.9 17.7 0.03 0.03 0.03 80 1016.8
20260901142530 27 164 9.7 14.5 0.00 0.00 0.00 77 1017.0
20260901142031 27 159 9.7 12.9 0.00 0.00 0.00 78 1016.9
20260901141526 27 151 9.7 16.1 0.00 0.00 0.00 78 1016.9
20260901141026 27 165 9.7 16.1 0.00 0.00 0.00 78 1016.9
20260901140537 27 192 8.0 16.1 0.00 0.00 0.00 78 1016.8
20260901140103 27 166 12.9 17.7 0.00 0.00 0.00 78 1016.8
20260901135538 26 184 11.3 14.5 0.00 0.00 0.00 78 1016.8
20260901135037 26 181 11.3 16.1 0.00 0.00 0.00 79 1016.8
20260901134535 26 175 11.3 17.7 0.00 0.00 0.00 79 1016.7
20260901134034 26 184 11.3 16.1 0.00 0.00 0.00 79 1016.8
20260901133531 26 154 9.7 16.1 0.00 0.00 0.00 79 1016.8
20260901133054 26 140 8.0 12.9 0.00 0.00 0.00 79 1016.8
20260901132554 26 160 8.0 12.9 0.00 0.00 0.00 80 1016.9
20260901132036 26 148 8.0 14.5 0.00 0.00 0.00 80 1016.9
20260901131534 26 134 8.0 17.7 0.00 0.00 0.00 80 1017.0
20260901131033 26 186 8.0 17.7 0.00 0.00 0.00 80 1017.0
20260901130531 26 191 11.3 17.7 0.00 0.00 0.00 81 1017.1
20260901130030 25 169 12.9 17.7 0.00 0.00 0.00 82 1017.1
20260901125529 25 163 14.5 22.5 0.00 0.00 0.00 83 1017.2
20260901125029 25 149 12.9 19.3 0.00 0.00 0.00 83 1017.2
20260901124527 25 172 12.9 17.7 0.00 0.00 0.00 84 1017.3
20260901124046 25 173 14.5 17.7 0.00 0.00 0.00 85 1017.2
20260901123543 24 173 12.9 17.7 0.00 0.00 0.00 85 1017.2
20260901123042 24 158 9.7 16.1 0.00 0.00 0.00 86 1017.2
20260901122539 24 138 8.0 14.5 0.00 0.00 0.00 87 1017.3
20260901122038 23 150 9.7 14.5 0.00 0.00 0.00 87 1017.2
20260901121536 23 164 9.7 16.1 0.00 0.00 0.00 88 1017.1
20260901121035 23 164 8.0 12.9 0.00 0.00 0.00 88 1017.2
20260901120536 23 158 8.0 14.5 0.00 0.00 0.00 88 1017.1
20260901120034 23 141 8.0 12.9 0.00 0.00 0.00 88 1017.1
20260901115532 23 147 6.4 11.3 0.00 0.00 0.00 88 1017.2
20260901115031 23 158 6.4 11.3 0.00 0.00 0.00 88 1017.2
20260901114528 23 141 4.8 8.0 0.00 0.00 0.00 88 1017.1
20260901114027 23 153 6.4 12.9 0.00 0.00 0.00 88 1017.2
20260901113524 23 149 8.0 12.9 0.00 0.00 0.00 88 1017.2
20260901113043 23 156 4.8 11.3 0.00 0.00 0.00 89 1017.2
20260901112540 23 165 6.4 9.7 0.00 0.00 0.00 89 1017.2
20260901112041 23 149 6.4 9.7 0.00 0.00 0.00 89 1017.2
20260901111538 23 165 4.8 11.3 0.00 0.00 0.00 89 1017.2
20260901111037 23 154 6.4 11.3 0.00 0.00 0.00 89 1017.0
20260901110559 23 145 3.2 11.3 0.00 0.00 0.00 89 1017.0
20260901110037 23 150 3.2 11.3 0.00 0.00 0.00 89 1017.0
20260901105533 23 156 6.4 11.3 0.00 0.00 0.00 89 1016.8
20260901105056 23 152 4.8 8.0 0.00 0.00 0.00 89 1016.9
20260901104536 23 137 3.2 6.4 0.00 0.00 0.00 89 1017.0
20260901104036 23 137 3.2 6.4 0.00 0.00 0.00 89 1016.9
20260901103533 23 160 4.8 11.3 0.00 0.00 0.00 89 1016.9
20260901103057 23 165 4.8 11.3 0.00 0.00 0.00 89 1016.9
20260901102533 23 150 3.2 8.0 0.00 0.00 0.00 89 1016.9
20260901102034 23 124 4.8 8.0 0.00 0.00 0.00 89 1016.8
20260901101530 23 101 4.8 11.3 0.00 0.00 0.00 89 1016.8
20260901101049 23 134 4.8 11.3 0.00 0.00 0.00 89 1016.7
20260901100545 23 142 6.4 11.3 0.00 0.00 0.00 89 1016.7
20260901100025 23 134 4.8 11.3 0.00 0.00 0.00 89 1016.7
20260901095542 23 153 6.4 11.3 0.00 0.00 0.00 89 1016.7
20260901095042 23 152 8.0 11.3 0.00 0.00 0.00 89 1016.7
20260901094540 23 136 8.0 12.9 0.00 0.00 0.00 88 1016.8
20260901094103 23 147 8.0 12.9 0.00 0.00 0.00 88 1016.8
20260901093538 23 141 8.0 11.3 0.00 0.00 0.00 89 1016.8
20260901093102 23 141 6.4 11.3 0.00 0.00 0.00 89 1016.8